Find Choma

NORAD ID: 33315 Int'l Des: 2008-040 Owner: REYE Country: D operational
LEOCIRCULARRETROGRADESSO

Current View

Loading 3D Globe...

About Choma

Description loading...

Upcoming Passes

Passes for default location (London). Set your location on the main map for personalized predictions.

Altitude History

Loading altitude history...

Two-Line Element Set

1 33315U 08040D 26150.43811926 .00003306 00000-0 22557-3 0 9991
2 33315 97.3833 181.3314 0012198 97.7274 262.5340 15.06811184963609
Epoch: May 30, 2026 • Age: 12 hours

Current Status

Altitude 570.7 km
Velocity 7.57 km/s
Sub-Earth Point -48.81°S, 124.64°E
Launch Date Aug 29, 2008
Age 17.7 years
Type other

Technical Details

Classification Payload
Mass 152.00 kg
Dry Mass 140.00 kg
Total Mass 152.00 kg
Length 1.00 m
Diameter 0.80 m
Span 1.00 m
Shape Hept Cyl
Manufacturer SSTL
Bus Type SSTL-150
Phase Status In Orbit
Owner/State REYE/D

Most Searched